カタログに戻る

NAVSTAR 50

USA 156

運用中ナビゲーションMEO
NORAD 26690·PAYLOAD·🇺🇸 United States

打ち上げ Jan 30, 2001 から Cape Canaveral Space Force Station

Loading…

次のパス (今後24時間)

TLE

最新Source: Space-Track

元期: Sep 14, 2026, 09:32 UTC

1 26690U 01004A   26257.39775913 -.00000094  00000-0  00000-0 0  9998
2 26690  55.2827  29.5103 0001585  29.8066 328.5161  1.91588174185244

AllMySatでNAVSTAR 50をリアルタイム追跡

Download on the App Store